Middlebury State AP, Middlebu, VT

7:25 PM EST on December 10, 2019 (GMT -0500)
Middlebury State AP, Middlebu

Weather History for K6B0 - August, 2019

Change the Weather History Date:

Friday, August 23, 2019

  Actual Average (KRUT) Record (KRUT)
Temperature  
Mean Temperature 61 °F -  
Max Temperature 70 °F 77 °F 87 °F (1972)
Min Temperature 51 °F 52 °F 42 °F (1993)
Degree Days  
Heating Degree Days 4    
Growing Degree Days 11 (Base 50)    
Moisture  
Dew Point 52 °F    
Average Humidity 75    
Maximum Humidity 99    
Minimum Humidity 49    
Precipitation  
Precipitation 0.00 in - - ()
Sea Level Pressure  
Sea Level Pressure 30.01 in    
Wind  
Wind Speed 3 mph ()    
Max Wind Speed 13 mph    
Max Gust Speed 18 mph    
Visibility 10.0 miles    
Events      
Averages and records for this station are not official NWS values.
T = Trace of Precipitation, MM = Missing Value Source: Averaged Metar Reports

Daily Weather History Graph

Daily Weather History Graph

Search for Another Location

Airport or City:

Astronomy

Aug. 23, 2019 Rise Set
Actual Time 6:05 AM EDT 7:44 PM EDT
Civil Twilight 5:34 AM EDT 8:14 PM EDT
Nautical Twilight 4:57 AM EDT 8:51 PM EDT
Astronomical Twilight 4:17 AM EDT 9:31 PM EDT
Moon 11:53 PM EDT (8/23) 1:55 PM EDT (8/23)
Length of Visible Light 14h 39m
Length of Day
13h 39m
Waning Gibbous, 50% of the Moon is Illuminated
Aug 23
Waning Gibbous
Aug 30
New
Sep 5
First Quarter
Sep 14
Full
Sep 21
Last Quarter

Hourly Weather History & Observations

Time (EDT) Temp. Dew Point Humidity Pressure Visibility Wind Dir Wind Speed Gust Speed Precip Events Conditions
12:18 AM 55.6 °F 52.0 °F 88% 29.93 in 10.0 mi Calm Calm - N/A   Clear
12:36 AM 55.4 °F 52.0 °F 88% 29.93 in 10.0 mi Calm Calm - N/A   Clear
12:56 AM 54.3 °F 52.3 °F 93% 29.94 in 10.0 mi Calm Calm - N/A   Clear
1:15 AM 54.0 °F 52.2 °F 94% 29.94 in 10.0 mi Calm Calm - N/A   Scattered Clouds
1:16 AM 54.0 °F 52.2 °F 94% 29.94 in 10.0 mi Calm Calm - N/A   Scattered Clouds
1:35 AM 54.3 °F 52.3 °F 93% 29.95 in 10.0 mi SSE 3.5 mph - N/A   Scattered Clouds
1:39 AM 54.1 °F 52.2 °F 93% 29.94 in 10.0 mi Calm Calm - N/A   Clear
1:57 AM 54.9 °F 52.5 °F 92% 29.94 in 10.0 mi Calm Calm - N/A   Mostly Cloudy
2:15 AM 54.7 °F 52.9 °F 94% 29.94 in 10.0 mi Calm Calm - N/A   Overcast
2:35 AM 55.6 °F 53.6 °F 93% 29.94 in 10.0 mi Calm Calm - N/A   Overcast
2:36 AM 55.6 °F 53.6 °F 93% 29.94 in 10.0 mi Calm Calm - N/A   Overcast
2:55 AM 55.6 °F 53.2 °F 92% 29.94 in 10.0 mi Calm Calm - N/A   Overcast
3:18 AM 55.9 °F 53.2 °F 91% 29.94 in 10.0 mi Calm Calm - N/A   Mostly Cloudy
3:56 AM 55.0 °F 53.1 °F 93% 29.94 in 10.0 mi Calm Calm - N/A   Mostly Cloudy
4:15 AM 54.5 °F 53.1 °F 95% 29.95 in 10.0 mi Calm Calm - N/A   Mostly Cloudy
4:16 AM 54.7 °F 53.2 °F 95% 29.95 in 10.0 mi Calm Calm - N/A   Mostly Cloudy
4:35 AM 54.5 °F 52.7 °F 94% 29.95 in 10.0 mi Calm Calm - N/A   Scattered Clouds
4:39 AM 54.3 °F 52.5 °F 94% 29.95 in 10.0 mi Calm Calm - N/A   Scattered Clouds
4:57 AM 53.8 °F 52.5 °F 95% 29.95 in 10.0 mi Calm Calm - N/A   Clear
5:15 AM 54.5 °F 52.5 °F 93% 29.95 in 10.0 mi Calm Calm - N/A   Clear
5:35 AM 52.5 °F 51.6 °F 97% 29.96 in 10.0 mi Calm Calm - N/A   Clear
5:56 AM 52.7 °F 51.8 °F 97% 29.97 in 10.0 mi Calm Calm - N/A   Scattered Clouds
6:19 AM 52.2 °F 51.4 °F 97% 29.98 in 10.0 mi Calm Calm - N/A   Clear
6:36 AM 52.2 °F 51.8 °F 99% 29.98 in 10.0 mi Calm Calm - N/A   Clear
6:56 AM 52.9 °F 52.2 °F 97% 29.99 in 10.0 mi SE 3.5 mph - N/A   Clear
7:15 AM 52.5 °F 51.6 °F 97% 30.00 in 10.0 mi North 4.6 mph - N/A   Clear
7:16 AM 52.5 °F 51.6 °F 97% 30.00 in 10.0 mi North 4.6 mph - N/A   Clear
7:35 AM 53.8 °F 53.1 °F 97% 30.01 in 10.0 mi Calm Calm - N/A   Scattered Clouds
7:39 AM 54.0 °F 53.4 °F 98% 30.00 in 10.0 mi Calm Calm - N/A   Scattered Clouds
7:58 AM 56.5 °F 55.0 °F 95% 30.00 in 10.0 mi Calm Calm - N/A   Scattered Clouds
8:15 AM 58.3 °F 55.8 °F 91% 30.00 in 10.0 mi Calm Calm - N/A   Clear
8:35 AM 61.5 °F 58.3 °F 89% 30.01 in 10.0 mi Calm Calm - N/A   Clear
8:36 AM 61.7 °F 58.1 °F 88% 30.01 in 10.0 mi Calm Calm - N/A   Clear
8:55 AM 63.0 °F 56.7 °F 80% 30.02 in 10.0 mi Calm Calm - N/A   Clear
8:56 AM 63.1 °F 56.5 °F 79% 30.02 in 10.0 mi NNE 3.5 mph - N/A   Clear
9:18 AM 64.6 °F 56.3 °F 74% 30.02 in 10.0 mi NNW 4.6 mph - N/A   Clear
9:37 AM 64.6 °F 55.9 °F 74% 30.02 in 10.0 mi NNW 4.6 mph - N/A   Scattered Clouds
9:55 AM 65.5 °F 54.1 °F 67% 30.02 in 10.0 mi North 9.2 mph - N/A   Scattered Clouds
9:56 AM 65.5 °F 54.1 °F 67% 30.02 in 10.0 mi North 10.4 mph - N/A   Scattered Clouds
10:15 AM 65.8 °F 54.0 °F 65% 30.02 in 10.0 mi NNE 6.9 mph - N/A   Scattered Clouds
10:16 AM 66.0 °F 53.8 °F 65% 30.02 in 10.0 mi NNE 5.8 mph - N/A   Scattered Clouds
10:35 AM 66.2 °F 54.3 °F 65% 30.02 in 10.0 mi North 6.9 mph - N/A   Mostly Cloudy
10:39 AM 65.5 °F 54.1 °F 67% 30.02 in 10.0 mi North 5.8 mph - N/A   Mostly Cloudy
10:57 AM 67.3 °F 53.2 °F 61% 30.02 in 10.0 mi NNE 10.4 mph 17.3 mph N/A   Scattered Clouds
11:15 AM 68.0 °F 53.2 °F 59% 30.03 in 10.0 mi NNW 8.1 mph - N/A   Scattered Clouds
11:35 AM 68.0 °F 52.3 °F 57% 30.03 in 10.0 mi North 9.2 mph - N/A   Scattered Clouds
11:36 AM 68.0 °F 52.5 °F 58% 30.03 in 10.0 mi North 10.4 mph - N/A   Scattered Clouds
11:55 AM 68.4 °F 51.8 °F 55% 30.02 in 10.0 mi NNW 9.2 mph - N/A   Scattered Clouds
11:56 AM 68.4 °F 52.0 °F 56% 30.02 in 10.0 mi North 9.2 mph - N/A   Scattered Clouds
12:18 PM 68.7 °F 52.0 °F 55% 30.02 in 10.0 mi North 10.4 mph - N/A   Clear
12:36 PM 68.7 °F 51.4 °F 54% 30.02 in 10.0 mi North 10.4 mph 17.3 mph N/A   Scattered Clouds
12:55 PM 69.4 °F 51.8 °F 53% 30.02 in 10.0 mi North 8.1 mph - N/A   Scattered Clouds
1:15 PM 70.0 °F 51.6 °F 52% 30.02 in 10.0 mi NNW 5.8 mph - N/A   Clear
1:35 PM 70.5 °F 52.5 °F 53% 30.01 in 10.0 mi NNW 6.9 mph 10.4 mph N/A   Clear
1:57 PM 70.2 °F 51.4 °F 51% 30.02 in 10.0 mi North 3.5 mph - N/A   Clear
2:16 PM 70.5 °F 50.5 °F 49% 30.02 in 10.0 mi NNW 5.8 mph - N/A   Scattered Clouds
2:35 PM 70.3 °F 50.5 °F 49% 30.02 in 10.0 mi North 8.1 mph - N/A   Clear
2:36 PM 70.2 °F 50.9 °F 50% 30.02 in 10.0 mi North 6.9 mph - N/A   Clear
2:56 PM 69.3 °F 50.0 °F 50% 30.02 in 10.0 mi North 3.5 mph - N/A   Clear
3:16 PM 69.8 °F 51.8 °F 53% 30.02 in 10.0 mi North 9.2 mph - N/A   Clear
3:35 PM 69.4 °F 51.4 °F 53% 30.02 in 10.0 mi NNW 8.1 mph - N/A   Clear
3:36 PM 69.6 °F 51.6 °F 53% 30.02 in 10.0 mi NNW 8.1 mph - N/A   Clear
3:55 PM 69.4 °F 49.8 °F 50% 30.02 in 10.0 mi North 6.9 mph - N/A   Clear
3:56 PM 69.4 °F 49.8 °F 50% 30.02 in 10.0 mi North 5.8 mph - N/A   Clear
4:19 PM 69.8 °F 50.2 °F 50% 30.02 in 10.0 mi NNW 8.1 mph 17.3 mph N/A   Clear
4:37 PM 69.1 °F 50.4 °F 51% 30.02 in 10.0 mi North 10.4 mph - N/A   Clear
4:55 PM 68.9 °F 51.4 °F 54% 30.02 in 10.0 mi North 11.5 mph - N/A   Clear
4:56 PM 68.7 °F 51.3 °F 54% 30.02 in 10.0 mi North 11.5 mph - N/A   Clear
5:15 PM 67.3 °F 50.0 °F 54% 30.02 in 10.0 mi North 12.7 mph 16.1 mph N/A   Clear
5:16 PM 67.3 °F 49.8 °F 53% 30.02 in 10.0 mi North 11.5 mph 16.1 mph N/A   Clear
5:35 PM 67.1 °F 51.1 °F 56% 30.03 in 10.0 mi North 8.1 mph - N/A   Clear
5:39 PM 67.6 °F 50.7 °F 55% 30.03 in 10.0 mi North 9.2 mph - N/A   Clear
5:57 PM 68.5 °F 49.6 °F 51% 30.03 in 10.0 mi North 10.4 mph 16.1 mph N/A   Clear
6:16 PM 68.0 °F 49.6 °F 52% 30.03 in 10.0 mi North 11.5 mph 17.3 mph N/A   Clear
6:35 PM 67.1 °F 49.1 °F 52% 30.04 in 10.0 mi North 10.4 mph 17.3 mph N/A   Clear
6:36 PM 67.1 °F 49.1 °F 52% 30.04 in 10.0 mi North 9.2 mph 17.3 mph N/A   Clear
6:55 PM 65.5 °F 50.0 °F 57% 30.05 in 10.0 mi North 10.4 mph 16.1 mph N/A   Clear
6:59 PM 64.9 °F 50.0 °F 58% 30.05 in 10.0 mi North 11.5 mph 18.4 mph N/A   Clear
7:17 PM 63.7 °F 50.4 °F 62% 30.05 in 10.0 mi North 5.8 mph - N/A   Clear
7:36 PM 62.6 °F 50.5 °F 65% 30.06 in 10.0 mi North 8.1 mph - N/A   Clear
7:55 PM 61.2 °F 50.9 °F 69% 30.07 in 10.0 mi Calm Calm - N/A   Clear
7:56 PM 61.2 °F 50.9 °F 69% 30.07 in 10.0 mi Calm Calm - N/A   Clear
8:15 PM 58.8 °F 52.0 °F 78% 30.07 in 10.0 mi Calm Calm - N/A   Clear
8:19 PM 57.9 °F 52.2 °F 81% 30.08 in 10.0 mi Calm Calm - N/A   Clear
8:37 PM 57.2 °F 52.0 °F 83% 30.08 in 10.0 mi Calm Calm - N/A   Clear
8:56 PM 56.3 °F 51.4 °F 84% 30.09 in 10.0 mi Calm Calm - N/A   Clear
9:15 PM 55.6 °F 51.3 °F 85% 30.09 in 10.0 mi Calm Calm - N/A   Clear
9:35 PM 54.7 °F 51.1 °F 88% 30.09 in 10.0 mi Calm Calm - N/A   Clear
9:36 PM 54.7 °F 51.1 °F 88% 30.09 in 10.0 mi Calm Calm - N/A   Clear
9:58 PM 54.0 °F 50.9 °F 89% 30.09 in 10.0 mi Calm Calm - N/A   Clear
10:16 PM 52.9 °F 49.6 °F 89% 30.09 in 10.0 mi Calm Calm - N/A   Clear
10:36 PM 53.1 °F 49.6 °F 88% 30.09 in 10.0 mi Calm Calm - N/A   Clear
10:55 PM 52.7 °F 49.3 °F 88% 30.10 in 10.0 mi Calm Calm - N/A   Clear
10:56 PM 52.7 °F 49.3 °F 88% 30.10 in 10.0 mi Calm Calm - N/A   Clear
11:15 PM 52.7 °F 49.3 °F 88% 30.10 in 10.0 mi Calm Calm - N/A   Clear
11:37 PM 52.0 °F 49.3 °F 90% 30.11 in 10.0 mi Calm Calm - N/A   Clear
11:56 PM 51.6 °F 48.9 °F 90% 30.11 in 10.0 mi Calm Calm - N/A   Clear